Regional Weather Roundup
Issued by NWS

Home | Current Version | Previous Version | Text Only | Print | Product List | Glossary Off
Versions: 1 2 3 4 5 6 7 8 9 10 11 12 13 14 15 16 17 18 19 20 21 22 23 24 25 26 27 28 29 30 31 32 33 34 35 36 37 38 39 40 41 42 43 44 45 46 47 48 49 50

000
ASUS43 KLMK 230110
RWRKY
KENTUCKY REGIONAL WEATHER ROUNDUP
NATIONAL WEATHER SERVICE LOUISVILLE KY
800 PM EST MON DEC 22 2014

NOTE "FAIR" INDICATES FEW OR NO CLOUDS BELOW 12,000 FEET
WITH NO SIGNIFICANT WEATHER AND/OR OBSTRUCTIONS TO VISIBILITY.

KYZ001>023-026-027-061>063-070>075-230200-
WESTERN AND SOUTH CENTRAL KENTUCKY

CITY           SKY/WX    TMP DP  RH WIND       PRES   REMARKS
PADUCAH        LGT RAIN  52  50  93 SE10      29.61S FOG
HENDERSON      CLOUDY    52  45  76 SE8       29.64S
OWENSBORO      LGT RAIN  53  49  86 S12       29.66F
HOPKINSVILLE   LGT RAIN  52  49  91 SE10      29.66S
BOWLING GREEN  CLOUDY    53  47  79 SE12      29.71F
GLASGOW        CLOUDY    53  46  78 SE9       29.73S
$$

KYZ024-025-028>034-038-045-046-053-230200-
NORTH CENTRAL KENTUCKY

CITY           SKY/WX    TMP DP  RH WIND       PRES   REMARKS
LOUISVILLE/SDF CLOUDY    52  43  71 SE9       29.71F
LOUISVILLE/LOU CLOUDY    53  42  66 SE7       29.72F
FORT KNOX      CLOUDY    54  45  71 SE12      29.68F
$$

KYZ035>037-039>044-047>052-055>060-089>105-230200-
NORTHEAST KENTUCKY

CITY           SKY/WX    TMP DP  RH WIND       PRES   REMARKS
LEXINGTON      CLOUDY    52  41  66 SE8       29.78S
COVINGTON      CLOUDY    49  37  63 SE9       29.77F
FRANKFORT      CLOUDY    51  41  68 SE8       29.75F
$$

KYZ054-064>069-076>088-106>120-230200-
SOUTHEAST KENTUCKY

CITY           SKY/WX    TMP DP  RH WIND       PRES   REMARKS
JACKSON        MOCLDY    52  40  63 E5        29.82F
LONDON         CLOUDY    52  32  46 CALM      29.81F
SOMERSET       MOCLDY    52  43  71 SE5       29.80F
MIDDLESBORO    CLOUDY    47  46  96 CALM      29.85S
MONTICELLO     CLOUDY    54  46  74 S8        29.80F
$$




USA.gov is the U.S. government's official web portal to all federal, state and local government web resources and services.